Weather History for West Palm Beach, FL

Change the Weather History Date:

Saturday, January 14, 2012

  Actual Average Record
Temperature  
Mean Temperature 56 °F 65 °F  
Max Temperature 62 °F 74 °F 86 °F (1912)
Min Temperature 49 °F 57 °F 31 °F (1922)
Degree Days  
Heating Degree Days 9 3  
Month to date heating degree days 62 42  
Since 1 July heating degree days 73 113  
Cooling Degree Days 0 3  
Month to date cooling degree days 19 49  
Year to date cooling degree days 19 49  
Growing Degree Days 6 (Base 50)    
Moisture  
Dew Point 40 °F    
Average Humidity 57    
Maximum Humidity 67    
Minimum Humidity 47    
Precipitation  
Precipitation 0.00 in 0.10 in 3.28 in (1974)
Month to date precipitation T 1.52  
Year to date precipitation T 1.52  
Snow  
Snow 0.00 in - - ()
Month to date snowfall 0.0  
Since 1 July snowfall 0.0  
Snow Depth 0.00 in    
Sea Level Pressure  
Sea Level Pressure 30.27 in    
Wind  
Wind Speed 11 mph (NNW)    
Max Wind Speed 18 mph    
Max Gust Speed 23 mph    
Visibility 10 miles    
Events      
T = Trace of Precipitation, MM = Missing Value Source: NWS Daily Summary

Daily Weather History Graph

Daily Weather History Graph

Search for Another Location

Airport:

Trip Planner

Search our weather history database for the weather conditions in past years. The results will help you decide how hot, cold, wet, or windy it might be!

Date:

Astronomy

Jan. 14, 2012 Rise Set
Actual Time 7:10 AM EST 5:48 PM EST
Civil Twilight 6:45 AM EST 6:13 PM EST
Nautical Twilight 6:17 AM EST 6:41 PM EST
Astronomical Twilight 5:48 AM EST 7:09 PM EST
Moon 11:25 PM EST (1/14) 10:32 AM EST (1/14)
Length of Visible Light 11h 27m
Length of Day
10h 37m
Waning Gibbous, 69% of the Moon is Illuminated
Jan 14
Waning Gibbous
Jan 16
Last Quarter
Jan 23
New
Jan 30
First Quarter
Feb 7
Full

Hourly Weather History & Observations

Time (EST) Temp. Dew Point Humidity Pressure Visibility Wind Dir Wind Speed Gust Speed Precip Events Conditions
12:53 AM 59.0 °F 39.0 °F 48% 30.19 in 10.0 mi NW 15.0 mph - N/A   Mostly Cloudy
1:53 AM 57.0 °F 37.0 °F 47% 30.19 in 10.0 mi NW 16.1 mph - N/A   Mostly Cloudy
2:53 AM 55.0 °F 36.0 °F 49% 30.20 in 10.0 mi NW 12.7 mph - N/A   Mostly Cloudy
3:53 AM 52.0 °F 33.1 °F 49% 30.20 in 10.0 mi NW 12.7 mph - N/A   Mostly Cloudy
4:53 AM 52.0 °F 35.1 °F 53% 30.23 in 10.0 mi NNW 13.8 mph 20.7 mph N/A   Mostly Cloudy
5:53 AM 52.0 °F 39.0 °F 61% 30.24 in 10.0 mi NNW 12.7 mph - N/A   Overcast
6:53 AM 52.0 °F 39.0 °F 61% 30.25 in 10.0 mi NNW 15.0 mph - N/A   Mostly Cloudy
7:53 AM 52.0 °F 36.0 °F 54% 30.27 in 10.0 mi NNW 13.8 mph 21.9 mph N/A   Mostly Cloudy
8:53 AM 52.0 °F 33.1 °F 49% 30.29 in 10.0 mi NNW 11.5 mph - N/A   Overcast
9:53 AM 54.0 °F 37.9 °F 55% 30.32 in 10.0 mi NNW 9.2 mph - N/A   Overcast
10:53 AM 55.0 °F 39.9 °F 57% 30.31 in 10.0 mi NNW 11.5 mph - N/A   Overcast
11:53 AM 57.0 °F 39.9 °F 53% 30.30 in 10.0 mi NNW 9.2 mph - N/A   Overcast
12:53 PM 57.9 °F 41.0 °F 53% 30.27 in 10.0 mi North 10.4 mph - N/A   Overcast
1:53 PM 60.1 °F 43.0 °F 53% 30.27 in 10.0 mi NNW 12.7 mph - N/A   Overcast
2:53 PM 61.0 °F 46.9 °F 60% 30.26 in 10.0 mi North 13.8 mph - N/A   Overcast
3:53 PM 62.1 °F 48.0 °F 60% 30.26 in 10.0 mi NNW 13.8 mph - N/A   Overcast
4:53 PM 60.1 °F 48.0 °F 64% 30.27 in 10.0 mi North 11.5 mph - N/A   Overcast
5:53 PM 59.0 °F 48.0 °F 67% 30.29 in 10.0 mi NNW 9.2 mph - N/A   Overcast
6:53 PM 57.0 °F 45.0 °F 64% 30.30 in 10.0 mi NNW 9.2 mph - N/A   Overcast
7:53 PM 55.9 °F 42.1 °F 60% 30.32 in 10.0 mi NNW 9.2 mph - N/A   Mostly Cloudy
8:53 PM 53.1 °F 41.0 °F 64% 30.32 in 10.0 mi NNW 8.1 mph - N/A   Mostly Cloudy
9:53 PM 54.0 °F 35.1 °F 49% 30.35 in 10.0 mi NNW 8.1 mph - N/A   Mostly Cloudy
10:53 PM 51.1 °F 35.1 °F 54% 30.35 in 10.0 mi NNW 5.8 mph - N/A   Mostly Cloudy
11:53 PM 48.9 °F 36.0 °F 61% 30.35 in 10.0 mi NNW 3.5 mph - N/A   Mostly Cloudy